TimeEDT,TemperatureF,Dew PointF,Humidity,Sea Level PressureIn,VisibilityMPH,Wind Direction,Wind SpeedMPH,Gust SpeedMPH,PrecipitationIn,Events,Conditions,WindDirDegrees,DateUTC
12:56 AM,42.1,30.0,62,29.90,10.0,WNW,12.7,-,N/A,,Partly Cloudy,300,2012-11-03 04:56:00
1:56 AM,43.0,30.0,60,29.89,10.0,WNW,15.0,20.7,N/A,,Mostly Cloudy,290,2012-11-03 05:56:00
2:56 AM,42.1,28.9,60,29.90,10.0,WNW,9.2,-,N/A,,Overcast,290,2012-11-03 06:56:00
3:56 AM,42.1,28.9,60,29.91,10.0,WNW,12.7,18.4,N/A,,Overcast,290,2012-11-03 07:56:00
4:56 AM,41.0,28.9,62,29.92,10.0,WNW,10.4,-,N/A,,Overcast,300,2012-11-03 08:56:00
5:56 AM,41.0,28.9,62,29.94,10.0,West,9.2,-,N/A,,Overcast,280,2012-11-03 09:56:00
6:56 AM,41.0,28.9,62,29.95,10.0,WNW,6.9,-,N/A,,Overcast,290,2012-11-03 10:56:00
7:56 AM,42.1,28.9,60,29.97,10.0,WNW,8.1,-,N/A,,Overcast,290,2012-11-03 11:56:00
8:56 AM,42.1,30.0,62,29.99,10.0,WNW,11.5,-,N/A,,Overcast,300,2012-11-03 12:56:00
9:56 AM,44.1,30.9,60,30.00,10.0,WNW,11.5,23.0,N/A,,Overcast,300,2012-11-03 13:56:00
10:56 AM,44.1,30.0,58,30.00,10.0,WNW,11.5,-,N/A,,Overcast,290,2012-11-03 14:56:00
11:56 AM,45.0,28.9,53,30.00,10.0,WNW,9.2,24.2,N/A,,Overcast,300,2012-11-03 15:56:00
12:56 PM,46.0,28.9,51,29.99,10.0,NW,15.0,23.0,N/A,,Overcast,320,2012-11-03 16:56:00
1:56 PM,45.0,30.9,58,30.00,10.0,WNW,11.5,19.6,N/A,,Overcast,290,2012-11-03 17:56:00
2:56 PM,46.0,30.0,54,29.99,10.0,NW,12.7,19.6,N/A,,Overcast,310,2012-11-03 18:56:00
3:56 PM,46.0,30.0,54,30.00,10.0,NW,13.8,20.7,N/A,,Overcast,310,2012-11-03 19:56:00
4:56 PM,46.0,30.0,54,30.01,10.0,WNW,11.5,-,N/A,,Overcast,300,2012-11-03 20:56:00
5:56 PM,46.0,30.0,54,30.01,10.0,WNW,9.2,-,N/A,,Overcast,290,2012-11-03 21:56:00
6:56 PM,45.0,30.9,58,30.02,10.0,WNW,10.4,-,N/A,,Overcast,290,2012-11-03 22:56:00
7:56 PM,45.0,28.9,53,30.03,10.0,WNW,10.4,-,N/A,,Overcast,300,2012-11-03 23:56:00
8:56 PM,45.0,28.0,52,30.03,10.0,NW,9.2,20.7,N/A,,Overcast,310,2012-11-04 00:56:00
9:56 PM,45.0,28.0,52,30.05,10.0,NW,6.9,-,N/A,,Overcast,310,2012-11-04 01:56:00
10:56 PM,45.0,27.0,49,30.07,10.0,NNW,9.2,19.6,N/A,,Overcast,330,2012-11-04 02:56:00
11:56 PM,44.1,27.0,51,30.06,10.0,NW,9.2,-,N/A,,Overcast,320,2012-11-04 03:56:00